SR9WXM Weather Reports


Display with metric or nautical units.
time (UTC)temp
F
wind
direction
speed
MPH
gust
MPH
rain 1hr
in
rain 24hr
in
rain mn
in
humidity
%
barometer
mb
20260507195558 47 267 5.0 8.0 0.00 0.00 0.00 100
20260507195156 47 275 5.0 8.0 0.00 0.00 0.00 100
20260507194756 47 262 5.0 10.0 0.00 0.00 0.00 100
20260507194356 47 260 5.0 8.0 0.00 0.00 0.00 100
20260507193956 47 221 6.0 12.0 0.00 0.00 0.00 100
20260507193556 48 270 7.0 11.0 0.00 0.00 0.00 100
20260507193155 48 147 5.0 9.0 0.00 0.00 0.00 100
20260507192755 48 71 6.0 8.0 0.00 0.00 0.00 100
20260507192355 47 49 5.0 7.0 0.00 0.00 0.00 100
20260507191955 47 236 5.0 9.0 0.00 0.00 0.00 100
20260507191555 47 64 5.0 7.0 0.00 0.00 0.00 100
20260507191153 47 113 6.0 7.0 0.00 0.00 0.00 100
20260507190753 47 60 5.0 7.0 0.00 0.00 0.00 100
20260507190353 47 118 6.0 8.0 0.00 0.00 0.00 100
20260507185953 47 59 6.0 10.0 0.00 0.00 0.00 100
20260507185553 47 75 6.0 8.0 0.00 0.00 0.00 100
20260507185151 47 188 6.0 9.0 0.00 0.00 0.00 100
20260507184750 47 121 6.0 9.0 0.00 0.00 0.00 100
20260507184350 47 177 6.0 9.0 0.00 0.00 0.00 100
20260507183950 46 180 6.0 10.0 0.00 0.00 0.00 100
20260507183550 46 161 7.0 9.0 0.00 0.00 0.00 100
20260507183148 46 210 7.0 10.0 0.00 0.00 0.00 100
20260507182748 46 163 8.0 10.0 0.00 0.00 0.00 100
20260507182348 46 174 7.0 10.0 0.00 0.00 0.00 100
20260507181948 46 204 7.0 11.0 0.00 0.00 0.00 100
20260507181548 46 202 8.0 13.0 0.00 0.00 0.00 100
20260507181147 46 189 8.0 13.0 0.00 0.00 0.00 100
20260507180747 46 192 8.0 12.0 0.00 0.00 0.00 100
20260507180347 46 182 7.0 10.0 0.00 0.00 0.00 100
20260507175938 46 177 7.0 12.0 0.00 0.00 0.00 100
20260507175538 46 141 7.0 10.0 0.00 0.00 0.00 100
20260507175135 46 125 8.0 11.0 0.00 0.00 0.00 100
20260507174735 46 195 6.0 9.0 0.00 0.00 0.00 100
20260507174335 46 180 9.0 12.0 0.00 0.00 0.00 100
20260507173935 46 170 8.0 11.0 0.00 0.00 0.00 100
20260507173535 46 143 6.0 9.0 0.00 0.00 0.00 100
20260507173133 46 195 7.0 11.0 0.00 0.00 0.00 100
20260507172731 46 140 8.0 11.0 0.00 0.00 0.00 100
20260507172331 46 199 8.0 12.0 0.00 0.00 0.00 100
20260507171930 46 146 6.0 8.0 0.00 0.00 0.00 100
20260507171530 46 209 8.0 11.0 0.00 0.00 0.00 100
20260507171128 46 201 6.0 9.0 0.00 0.00 0.00 100
20260507170728 46 190 7.0 10.0 0.00 0.00 0.00 100
20260507170330 46 180 6.0 9.0 0.00 0.00 0.00 100
20260507165928 46 206 6.0 9.0 0.00 0.00 0.00 100
20260507165528 46 194 7.0 11.0 0.00 0.00 0.00 100
20260507165126 46 197 6.0 9.0 0.00 0.00 0.00 100
20260507164726 46 182 6.0 10.0 0.00 0.00 0.00 100
20260507164326 46 217 6.0 8.0 0.00 0.00 0.00 100
20260507163927 46 211 6.0 8.0 0.00 0.00 0.00 100
20260507163527 46 208 5.0 7.0 0.00 0.00 0.00 100
20260507163125 46 176 7.0 9.0 0.00 0.00 0.00 100
20260507162725 46 149 7.0 10.0 0.00 0.00 0.00 100
20260507162325 45 198 6.0 8.0 0.00 0.00 0.00 100
20260507161925 45 141 7.0 9.0 0.00 0.00 0.00 100
20260507161525 45 96 6.0 11.0 0.00 0.00 0.00 100
20260507161123 46 161 7.0 9.0 0.00 0.00 0.00 100
20260507160723 46 127 8.0 14.0 0.00 0.00 0.00 100
20260507160323 47 117 7.0 10.0 0.00 0.00 0.00 100
20260507155923 48 210 5.0 7.0 0.00 0.00 0.00 100
20260507155610 49 63 5.0 7.0 0.00 0.00 0.00 100
20260507155523 49 63 5.0 7.0 0.00 0.00 0.00 100
20260507155121 49 238 4.0 6.0 0.00 0.00 0.00 100
20260507154724 49 225 2.0 3.0 0.00 0.00 0.00 100
20260507154322 47 225 0.0 0.0 0.00 0.00 0.00 100
20260507153922 47 225 0.0 0.0 0.00 0.00 0.00 100
20260507153522 47 225 1.0 2.0 0.00 0.00 0.00 100
20260507153120 47 214 5.0 6.0 0.00 0.00 0.00 100
20260507152720 47 189 5.0 7.0 0.00 0.00 0.00 100
20260507152310 48 192 7.0 10.0 0.00 0.00 0.00 100
20260507151910 48 114 7.0 9.0 0.00 0.00 0.00 100
20260507151510 48 73 6.0 8.0 0.00 0.00 0.00 100
20260507151108 48 199 7.0 9.0 0.00 0.00 0.00 100
20260507150708 49 86 6.0 7.0 0.00 0.00 0.00 100
20260507150307 49 151 6.0 10.0 0.00 0.00 0.00 100
20260507145907 49 104 5.0 8.0 0.00 0.00 0.00 100
20260507145507 50 0 5.0 6.0 0.00 0.00 0.00 100
20260507145105 50 33 5.0 9.0 0.00 0.00 0.00 100
20260507144705 50 204 5.0 7.0 0.00 0.00 0.00 100
20260507144306 50 193 5.0 9.0 0.00 0.00 0.00 100
20260507143905 50 202 7.0 9.0 0.00 0.00 0.00 100
20260507143505 50 210 6.0 9.0 0.00 0.00 0.00 100
20260507143103 50 207 5.0 8.0 0.00 0.00 0.00 100
20260507142703 50 185 4.0 7.0 0.00 0.00 0.00 100
20260507142306 50 209 6.0 7.0 0.00 0.00 0.00 100
20260507141903 50 203 5.0 8.0 0.00 0.00 0.00 100
20260507141503 50 211 4.0 5.0 0.00 0.00 0.00 100
20260507141101 49 202 3.0 5.0 0.00 0.00 0.00 100
20260507140701 50 215 3.0 6.0 0.00 0.00 0.00 100
20260507140301 50 207 4.0 6.0 0.00 0.00 0.00 100
20260507135902 50 72 4.0 7.0 0.00 0.00 0.00 100
20260507135502 49 143 5.0 6.0 0.00 0.00 0.00 100
20260507135059 49 25 6.0 8.0 0.00 0.00 0.00 100
20260507134659 49 352 6.0 8.0 0.00 0.00 0.00 100
20260507134259 49 322 5.0 6.0 0.00 0.00 0.00 100
20260507133859 48 165 6.0 8.0 0.00 0.00 0.00 100
20260507133459 48 21 5.0 7.0 0.00 0.00 0.00 100
20260507133057 48 253 5.0 6.0 0.00 0.00 0.00 100
20260507132657 49 100 6.0 7.0 0.00 0.00 0.00 100
20260507132257 49 172 6.0 10.0 0.00 0.00 0.00 100
20260507131855 48 154 8.0 12.0 0.00 0.00 0.00 100
20260507131455 48 169 7.0 10.0 0.00 0.00 0.00 100
20260507131053 48 161 7.0 8.0 0.00 0.00 0.00 100
20260507130653 47 124 7.0 9.0 0.00 0.00 0.00 100
20260507130253 47 246 7.0 11.0 0.00 0.00 0.00 100
20260507125853 47 226 5.0 9.0 0.00 0.00 0.00 100
20260507125453 47 267 6.0 10.0 0.00 0.00 0.00 100
20260507125042 47 265 4.0 6.0 0.00 0.00 0.00 100
20260507124642 48 253 5.0 8.0 0.00 0.00 0.00 100
20260507124242 49 253 6.0 11.0 0.00 0.00 0.00 100
20260507123842 49 238 9.0 16.0 0.00 0.00 0.00 100
20260507123442 49 188 7.0 10.0 0.00 0.00 0.00 100
20260507123040 49 238 6.0 12.0 0.00 0.00 0.00 100
20260507122639 49 37 4.0 7.0 0.00 0.00 0.00 100
20260507122239 49 244 4.0 6.0 0.00 0.00 0.00 100
20260507121839 49 282 4.0 6.0 0.00 0.00 0.00 100
20260507121439 49 263 6.0 7.0 0.00 0.00 0.00 100
20260507121037 48 240 5.0 7.0 0.00 0.00 0.00 100
20260507120637 48 251 5.0 6.0 0.00 0.00 0.00 100
20260507120237 49 251 4.0 6.0 0.00 0.00 0.00 100
20260507115836 49 235 8.0 14.0 0.00 0.00 0.00 100
20260507115436 49 237 9.0 16.0 0.00 0.00 0.00 100
20260507115035 49 240 4.0 6.0 0.00 0.00 0.00 100
20260507114635 49 270 3.0 5.0 0.00 0.00 0.00 100
20260507114235 49 286 3.0 5.0 0.00 0.00 0.00 100
20260507113834 49 243 3.0 5.0 0.00 0.00 0.00 100
20260507113434 49 288 3.0 5.0 0.00 0.00 0.00 100
20260507113033 50 295 2.0 4.0 0.00 0.00 0.00 100
20260507112632 50 278 3.0 6.0 0.00 0.00 0.00 100
20260507112232 50 245 4.0 6.0 0.00 0.00 0.00 100
20260507111835 50 266 4.0 6.0 0.00 0.00 0.00 100
20260507111432 50 232 5.0 8.0 0.00 0.00 0.00 100
20260507111030 50 260 6.0 20.0 0.00 0.00 0.00 100
20260507110630 50 260 4.0 6.0 0.00 0.00 0.00 100
20260507110230 51 288 3.0 6.0 0.00 0.00 0.00 100
20260507105829 51 288 4.0 7.0 0.00 0.00 0.00 100
20260507105429 52 251 5.0 6.0 0.00 0.00 0.00 100
20260507105027 52 265 3.0 5.0 0.00 0.00 0.00 100
20260507104627 52 255 3.0 7.0 0.00 0.00 0.00 100
20260507104227 52 310 4.0 7.0 0.00 0.00 0.00 100
20260507103827 52 273 4.0 7.0 0.00 0.00 0.00 100
20260507103427 52 304 4.0 8.0 0.00 0.00 0.00 100
20260507103025 52 20 2.0 5.0 0.00 0.00 0.00 100
20260507102625 52 261 4.0 10.0 0.00 0.00 0.00 100
20260507102225 52 208 4.0 7.0 0.00 0.00 0.00 100
20260507101826 52 215 3.0 5.0 0.00 0.00 0.00 100
20260507101418 53 234 3.0 6.0 0.00 0.00 0.00 100
20260507101016 53 251 5.0 6.0 0.00 0.00 0.00 100
20260507100616 53 227 5.0 9.0 0.00 0.00 0.00 100
20260507100216 53 221 5.0 7.0 0.00 0.00 0.00 100
20260507095816 53 274 7.0 10.0 0.00 0.00 0.00 100
20260507095415 53 188 6.0 10.0 0.00 0.00 0.00 100
20260507095014 53 278 5.0 8.0 0.00 0.00 0.00 100
20260507094614 54 266 4.0 6.0 0.00 0.00 0.00 100
20260507094214 54 253 5.0 9.0 0.00 0.00 0.00 100
20260507093814 54 260 2.0 4.0 0.00 0.00 0.00 100
20260507093413 54 308 0.0 1.0 0.00 0.00 0.00 100
20260507093011 53 309 1.0 2.0 0.00 0.00 0.00 100
20260507092611 53 309 1.0 2.0 0.00 0.00 0.00 100
20260507092211 54 270 3.0 4.0 0.00 0.00 0.00 100
20260507091811 54 289 2.0 5.0 0.00 0.00 0.00 100
20260507091411 54 326 3.0 5.0 0.00 0.00 0.00 100
20260507091009 54 281 1.0 2.0 0.00 0.00 0.00 100
20260507090607 53 289 3.0 5.0 0.00 0.00 0.00 100
20260507090207 53 301 1.0 2.0 0.00 0.00 0.00 100
20260507085807 52 265 3.0 5.0 0.00 0.00 0.00 100
20260507085407 52 262 3.0 4.0 0.00 0.00 0.00 100
20260507085005 53 294 3.0 5.0 0.00 0.00 0.00 100
20260507084605 53 299 2.0 3.0 0.00 0.00 0.00 100
20260507084205 52 266 4.0 6.0 0.00 0.00 0.00 100
20260507083804 52 272 2.0 3.0 0.00 0.00 0.00 100
20260507083404 51 276 3.0 4.0 0.00 0.00 0.00 100
20260507083002 51 291 2.0 4.0 0.00 0.00 0.00 100
20260507082602 52 219 4.0 7.0 0.00 0.00 0.00 100
20260507082202 52 252 5.0 8.0 0.00 0.00 0.00 100
20260507081802 52 241 5.0 7.0 0.00 0.00 0.00 100
20260507081402 52 315 6.0 10.0 0.00 0.00 0.00 100
20260507081000 52 288 5.0 7.0 0.00 0.00 0.00 100
20260507080600 52 253 5.0 7.0 0.00 0.00 0.00 100
20260507080200 52 30 5.0 8.0 0.00 0.00 0.00 100
20260507075800 52 319 5.0 7.0 0.00 0.00 0.00 100
20260507075400 52 100 4.0 9.0 0.00 0.00 0.00 100
20260507074958 52 163 5.0 6.0 0.00 0.00 0.00 100
20260507074558 52 148 6.0 10.0 0.00 0.00 0.00 100
20260507074158 52 208 6.0 10.0 0.00 0.00 0.00 100
20260507073749 52 110 7.0 11.0 0.00 0.00 0.00 100
20260507073348 52 141 8.0 11.0 0.00 0.00 0.00 100
20260507072946 52 202 6.0 8.0 0.00 0.00 0.00 100
20260507072547 52 150 7.0 11.0 0.00 0.00 0.00 100
20260507072147 52 172 8.0 12.0 0.00 0.00 0.00 100
20260507071747 53 145 8.0 10.0 0.00 0.00 0.00 100
20260507071346 53 172 7.0 12.0 0.00 0.00 0.00 100
20260507070944 52 200 6.0 10.0 0.00 0.00 0.00 100
20260507070544 52 193 6.0 9.0 0.00 0.00 0.00 100
20260507070144 52 163 9.0 16.0 0.00 0.00 0.00 100
20260507065823 52 178 7.0 13.0 0.00 0.00 0.00 100
20260507065744 52 178 7.0 13.0 0.00 0.00 0.00 100
20260507065344 52 164 8.0 13.0 0.00 0.00 0.00 100
20260507064942 52 167 8.0 17.0 0.00 0.00 0.00 100
20260507064542 52 183 8.0 12.0 0.00 0.00 0.00 100
20260507064142 52 210 9.0 14.0 0.00 0.00 0.00 100
20260507063742 52 152 10.0 14.0 0.00 0.00 0.00 100
20260507063341 52 183 10.0 18.0 0.00 0.00 0.00 100
20260507062940 52 176 11.0 19.0 0.00 0.00 0.00 100
20260507062542 52 140 11.0 15.0 0.00 0.00 0.00 100
20260507062139 52 181 9.0 15.0 0.00 0.00 0.00 100
20260507061739 51 149 9.0 16.0 0.00 0.00 0.00 100
20260507061340 51 176 7.0 9.0 0.00 0.00 0.00 100
20260507060937 51 138 11.0 19.0 0.00 0.00 0.00 100
20260507060537 51 168 9.0 13.0 0.00 0.00 0.00 100
20260507060137 51 178 8.0 13.0 0.00 0.00 0.00 100
20260507055737 51 177 8.0 15.0 0.00 0.00 0.00 100
20260507055337 51 158 9.0 12.0 0.00 0.00 0.00 100
20260507054935 51 195 10.0 15.0 0.00 0.00 0.00 100
20260507054535 51 172 8.0 16.0 0.00 0.00 0.00 100
20260507054135 51 177 10.0 12.0 0.00 0.00 0.00 100
20260507053735 51 156 11.0 16.0 0.00 0.00 0.00 100
20260507053335 51 167 9.0 14.0 0.00 0.00 0.00 100
20260507052936 51 151 9.0 14.0 0.00 0.00 0.00 100
20260507052533 50 159 8.0 13.0 0.00 0.00 0.00 100
20260507052133 50 159 9.0 12.0 0.00 0.00 0.00 100
20260507051733 50 191 10.0 16.0 0.00 0.00 0.00 100
20260507051333 50 168 9.0 12.0 0.00 0.00 0.00 100
20260507050931 50 181 10.0 15.0 0.00 0.00 0.00 100
20260507050531 50 154 10.0 14.0 0.00 0.00 0.00 100
20260507050124 50 183 9.0 14.0 0.00 0.00 0.00 100
20260507045721 49 179 11.0 17.0 0.00 0.00 0.00 100
20260507045321 49 167 8.0 11.0 0.00 0.00 0.00 100
20260507044919 50 117 7.0 10.0 0.00 0.00 0.00 100
20260507044519 50 150 10.0 20.0 0.00 0.00 0.00 100
20260507044119 50 140 11.0 20.0 0.00 0.00 0.00 100
20260507043719 50 128 11.0 14.0 0.00 0.00 0.00 100
20260507043319 50 158 13.0 19.0 0.00 0.00 0.00 100
20260507042917 50 163 14.0 24.0 0.00 0.00 0.00 100
20260507042517 50 196 11.0 17.0 0.00 0.00 0.00 100
20260507042117 50 151 11.0 19.0 0.00 0.00 0.00 100
20260507041717 50 162 11.0 15.0 0.00 0.00 0.00 100
20260507041316 50 184 11.0 18.0 0.00 0.00 0.00 100
20260507040914 50 138 10.0 14.0 0.00 0.00 0.00 100
20260507040514 50 123 11.0 16.0 0.00 0.00 0.00 100
20260507040114 49 119 11.0 19.0 0.00 0.00 0.00 100
20260507035714 49 125 12.0 15.0 0.00 0.00 0.00 100
20260507035314 50 136 12.0 19.0 0.00 0.00 0.00 100
20260507034912 50 165 13.0 20.0 0.00 0.00 0.00 100
20260507034512 50 135 10.0 16.0 0.00 0.00 0.00 100
20260507034112 50 148 15.0 24.0 0.00 0.00 0.00 100
20260507033712 50 170 13.0 21.0 0.00 0.00 0.00 100
20260507033311 50 173 15.0 21.0 0.00 0.00 0.00 100
20260507032909 50 166 14.0 22.0 0.00 0.00 0.00 100
20260507032509 50 163 13.0 19.0 0.00 0.00 0.00 100
20260507032109 50 173 14.0 21.0 0.00 0.00 0.00 100
20260507031709 50 180 16.0 22.0 0.00 0.00 0.00 100
20260507031310 50 126 12.0 18.0 0.00 0.00 0.00 100
20260507030507 50 166 17.0 25.0 0.00 0.00 0.00 100
20260507030107 50 173 15.0 24.0 0.00 0.00 0.00 100
20260507025707 50 168 18.0 27.0 0.00 0.00 0.00 100
20260507025307 50 144 14.0 19.0 0.00 0.00 0.00 100
20260507024905 50 151 16.0 24.0 0.00 0.00 0.00 100
20260507024505 50 165 15.0 24.0 0.00 0.00 0.00 100
20260507024105 50 173 13.0 18.0 0.00 0.00 0.00 100
20260507023705 50 180 14.0 17.0 0.00 0.00 0.00 100
20260507023305 50 167 14.0 22.0 0.00 0.00 0.00 100
20260507022854 50 167 13.0 17.0 0.00 0.00 0.00 100
20260507022454 50 164 11.0 14.0 0.00 0.00 0.00 100
20260507022054 50 209 13.0 21.0 0.00 0.00 0.00 100
20260507021653 50 177 13.0 20.0 0.00 0.00 0.00 100
20260507021253 50 173 15.0 24.0 0.00 0.00 0.00 100
20260507020851 50 183 14.0 26.0 0.00 0.00 0.00 100
20260507020451 50 134 13.0 20.0 0.00 0.00 0.00 100
20260507020052 50 174 15.0 22.0 0.00 0.00 0.00 100
20260507015651 50 165 14.0 22.0 0.00 0.00 0.00 100
20260507015251 50 172 14.0 31.0 0.00 0.00 0.00 100
20260507014849 50 191 13.0 23.0 0.00 0.00 0.00 100
20260507014449 50 166 15.0 21.0 0.00 0.00 0.00 100
20260507014049 50 176 14.0 29.0 0.00 0.00 0.00 100
20260507013649 50 166 14.0 22.0 0.00 0.00 0.00 100
20260507013248 51 188 14.0 24.0 0.00 0.00 0.00 100
20260507012847 51 165 15.0 27.0 0.00 0.00 0.00 100
20260507012447 51 174 13.0 21.0 0.00 0.00 0.00 100
20260507012047 51 184 16.0 21.0 0.00 0.00 0.00 100
20260507011647 51 163 14.0 20.0 0.00 0.00 0.00 100
20260507011246 51 174 17.0 25.0 0.00 0.00 0.00 100
20260507010844 51 153 14.0 19.0 0.00 0.00 0.00 100
20260507010444 51 151 15.0 24.0 0.00 0.00 0.00 100
20260507010044 51 173 12.0 17.0 0.00 0.00 0.00 100
20260507005644 52 169 14.0 18.0 0.00 0.00 0.00 100
20260507005244 52 180 16.0 22.0 0.00 0.00 0.00 100
20260507004842 51 156 14.0 24.0 0.00 0.00 0.00 100
20260507004440 52 177 13.0 17.0 0.00 0.00 0.00 100
20260507004040 52 167 13.0 26.0 0.00 0.00 0.00 100
20260507003640 52 158 12.0 19.0 0.00 0.00 0.00 100
20260507003240 52 166 10.0 17.0 0.00 0.00 0.00 100
20260507002838 52 169 11.0 16.0 0.00 0.00 0.00 100
20260507002438 52 157 12.0 16.0 0.00 0.00 0.00 100
20260507002037 52 180 14.0 21.0 0.00 0.00 0.00 100
20260507001637 52 154 11.0 20.0 0.00 0.00 0.00 100
20260507001237 52 156 13.0 19.0 0.00 0.00 0.00 100
20260507000835 52 170 12.0 18.0 0.00 0.00 0.00 100
20260507000435 53 178 13.0 21.0 0.00 0.00 0.00 100
20260507000035 53 157 12.0 19.0 0.00 0.00 0.00 100
20260506235636 53 183 15.0 26.0 0.00 0.00 0.00 100
20260506235228 53 188 15.0 20.0 0.00 0.00 0.00 100
20260506234829 53 180 17.0 26.0 0.00 0.00 0.00 100
20260506234426 53 155 12.0 22.0 0.00 0.00 0.00 100
20260506234026 53 154 13.0 18.0 0.00 0.00 0.00 100
20260506233626 53 133 13.0 20.0 0.00 0.00 0.00 100
20260506233226 53 163 14.0 24.0 0.00 0.00 0.00 100
20260506232824 53 173 16.0 26.0 0.00 0.00 0.00 100
20260506232424 53 181 17.0 25.0 0.00 0.00 0.00 100
20260506232024 53 184 16.0 26.0 0.00 0.00 0.00 100
20260506231623 53 187 16.0 28.0 0.00 0.00 0.00 100
20260506231223 53 180 17.0 24.0 0.00 0.00 0.00 100
20260506230821 53 180 17.0 26.0 0.00 0.00 0.00 100
20260506230422 53 187 17.0 27.0 0.00 0.00 0.00 100
20260506230022 54 171 15.0 19.0 0.00 0.00 0.00 100
20260506225621 54 194 18.0 27.0 0.00 0.00 0.00 100
20260506225221 54 176 16.0 21.0 0.00 0.00 0.00 100
20260506224819 54 189 18.0 27.0 0.00 0.00 0.00 100
20260506224419 54 180 17.0 27.0 0.00 0.00 0.00 100
20260506224019 54 170 16.0 30.0 0.00 0.00 0.00 100
20260506223619 54 194 15.0 23.0 0.00 0.00 0.00 100
20260506223218 54 192 17.0 22.0 0.00 0.00 0.00 100
20260506222817 54 196 15.0 30.0 0.00 0.00 0.00 100
20260506222417 54 182 16.0 24.0 0.00 0.00 0.00 100
20260506222017 54 190 14.0 22.0 0.00 0.00 0.00 100
20260506221617 54 195 13.0 19.0 0.00 0.00 0.00 100
20260506221216 54 180 13.0 18.0 0.00 0.00 0.00 100
20260506220814 54 174 12.0 19.0 0.00 0.00 0.00 100
20260506220414 54 180 10.0 13.0 0.00 0.00 0.00 100
20260506220014 54 176 12.0 17.0 0.00 0.00 0.00 100
20260506215614 54 178 12.0 19.0 0.00 0.00 0.00 100
20260506215214 55 159 13.0 20.0 0.00 0.00 0.00 100
20260506214812 55 184 13.0 21.0 0.00 0.00 0.00 100
20260506214412 55 158 14.0 22.0 0.00 0.00 0.00 100
20260506214012 55 175 14.0 24.0 0.00 0.00 0.00 100
20260506213612 55 197 15.0 21.0 0.00 0.00 0.00 100
20260506213212 55 174 11.0 16.0 0.00 0.00 0.00 100
20260506212810 55 178 11.0 15.0 0.00 0.00 0.00 100
20260506212410 55 203 8.0 13.0 0.00 0.00 0.00 100
20260506212010 55 195 12.0 19.0 0.00 0.00 0.00 100
20260506211600 55 195 14.0 18.0 0.00 0.00 0.00 100
20260506211201 55 188 16.0 23.0 0.00 0.00 0.00 100
20260506210759 56 178 14.0 23.0 0.00 0.00 0.00 100
20260506210359 56 177 13.0 24.0 0.00 0.00 0.00 100
20260506205959 56 193 16.0 28.0 0.00 0.00 0.00 100
20260506205558 56 184 17.0 27.0 0.00 0.00 0.00 100
20260506205158 56 191 16.0 27.0 0.00 0.00 0.00 100
20260506204756 56 182 14.0 22.0 0.00 0.00 0.00 100
20260506204356 56 187 16.0 23.0 0.00 0.00 0.00 100
20260506203956 56 181 16.0 26.0 0.00 0.00 0.00 100
20260506203554 56 180 16.0 27.0 0.00 0.00 0.00 100
20260506203154 56 199 18.0 23.0 0.00 0.00 0.00 100
20260506202752 55 168 15.0 22.0 0.00 0.00 0.00 100
20260506202353 56 180 13.0 21.0 0.00 0.00 0.00 100
20260506201952 56 187 12.0 20.0 0.00 0.00 0.00 100
20260506201552 56 188 12.0 21.0 0.00 0.00 0.00 100
20260506201152 56 194 13.0 19.0 0.00 0.00 0.00 100
20260506200750 56 183 10.0 15.0 0.00 0.00 0.00 100
20260506200349 56 193 10.0 16.0 0.00 0.00 0.00 100
20260506195949 56 206 11.0 14.0 0.00 0.00 0.00 100